• In Czech Republic
  • List of Countries
  • For 7 days
  • Water Temperature
  • Satellite Maps
  • Weather Map
  • Weather Widgets
  • user-avatar
    Login

    Hourly Weather San Luis Teolocholco

    Today, 17 January, Wednesday

    Time Temperature Precipitation Wind Pressure Humidity
    00:00 +7°C° 0 mm 2 mps 576 mmHg 83%
    01:00 +6°C° 0 mm 2 mps 576 mmHg 84%
    02:00 +6°C° 0 mm 2 mps 576 mmHg 85%
    03:00 +6°C° 0 mm 2 mps 575 mmHg 85%
    04:00 +5°C° 0 mm 2 mps 575 mmHg 86%
    05:00 +4°C° 0 mm 2 mps 575 mmHg 88%
    06:00 +6°C° 0 mm 2 mps 576 mmHg 81%
    07:00 +7°C° 0 mm 2 mps 577 mmHg 74%
    08:00 +8°C° 0 mm 2 mps 578 mmHg 67%
    09:00 +10°C° 0 mm 2 mps 579 mmHg 58%
    10:00 +12°C° 0 mm 3 mps 579 mmHg 49%
    11:00 +14°C° 0 mm 3 mps 580 mmHg 40%
    12:00 +16°C° 0 mm 3 mps 580 mmHg 39%
    13:00 +16°C° 0 mm 3 mps 579 mmHg 37%
    14:00 +17°C° 0 mm 3 mps 579 mmHg 36%
    15:00 +14°C° 0 mm 3 mps 579 mmHg 42%
    16:00 +13°C° 0 mm 3 mps 578 mmHg 48%
    17:00 +12°C° 0 mm 3 mps 577 mmHg 54%
    18:00 +10°C° 0 mm 3 mps 577 mmHg 60%
    19:00 +9°C° 0 mm 3 mps 577 mmHg 66%
    20:00 +8°C° 0 mm 3 mps 577 mmHg 71%
    21:00 +8°C° 0 mm 3 mps 577 mmHg 73%
    22:00 +7°C° 0 mm 3 mps 577 mmHg 75%
    23:00 +7°C° 0 mm 3 mps 576 mmHg 76%

    Tomorrow, 18 January, Thursday

    Time Temperature Precipitation Wind Pressure Humidity
    00:00 +5°C° 0 mm 3 mps 576 mmHg 77%
    01:00 +6°C° 0 mm 2 mps 576 mmHg 78%
    02:00 +6°C° 0 mm 2 mps 575 mmHg 80%
    03:00 +6°C° 0 mm 2 mps 575 mmHg 81%
    04:00 +5°C° 0 mm 2 mps 575 mmHg 82%
    05:00 +5°C° 0 mm 2 mps 574 mmHg 83%
    06:00 +6°C° 0 mm 2 mps 575 mmHg 78%
    07:00 +7°C° 0 mm 2 mps 576 mmHg 72%
    08:00 +9°C° 0 mm 2 mps 577 mmHg 66%
    09:00 +12°C° 0 mm 2 mps 577 mmHg 58%
    10:00 +13°C° 0 mm 2 mps 578 mmHg 50%
    11:00 +15°C° 0 mm 2 mps 579 mmHg 41%
    12:00 +16°C° 0 mm 3 mps 578 mmHg 40%
    13:00 +17°C° 0 mm 3 mps 578 mmHg 38%
    14:00 +17°C° 0 mm 3 mps 577 mmHg 36%
    15:00 +16°C° 0 mm 3 mps 577 mmHg 41%
    16:00 +14°C° 0 mm 3 mps 576 mmHg 45%
    17:00 +13°C° 0 mm 3 mps 576 mmHg 50%
    18:00 +12°C° 0 mm 3 mps 576 mmHg 57%
    19:00 +10°C° 0 mm 2 mps 575 mmHg 64%
    20:00 +9°C° 0 mm 2 mps 575 mmHg 72%
    21:00 +9°C° 0 mm 1 mps 575 mmHg 73%
    22:00 +9°C° 0 mm 1 mps 575 mmHg 75%
    23:00 +8°C° 0 mm 1 mps 575 mmHg 77%

    Day after tomorrow, 19 January, Friday

    Time Temperature Precipitation Wind Pressure Humidity
    00:00 +8°C° 0 mm 1 mps 574 mmHg 76%
    01:00 +8°C° 0 mm 1 mps 574 mmHg 76%
    02:00 +8°C° 0 mm 1 mps 573 mmHg 76%
    03:00 +7°C° 0 mm 1 mps 573 mmHg 75%
    04:00 +7°C° 0 mm 1 mps 573 mmHg 73%
    05:00 +7°C° 0 mm 1 mps 573 mmHg 72%
    06:00 +9°C° 0 mm 1 mps 574 mmHg 66%
    07:00 +10°C° 0 mm 1 mps 575 mmHg 60%
    08:00 +11°C° 0 mm 1 mps 576 mmHg 54%
    09:00 +13°C° 0 mm 1 mps 576 mmHg 49%
    10:00 +15°C° 0 mm 2 mps 577 mmHg 44%
    11:00 +17°C° 0 mm 3 mps 577 mmHg 38%
    12:00 +17°C° 0 mm 3 mps 577 mmHg 38%
    13:00 +17°C° 0 mm 4 mps 576 mmHg 37%
    14:00 +18°C° 0 mm 4 mps 575 mmHg 37%
    15:00 +17°C° 0 mm 4 mps 575 mmHg 40%
    16:00 +16°C° 0 mm 3 mps 575 mmHg 44%
    17:00 +14°C° 0 mm 3 mps 574 mmHg 47%
    18:00 +14°C° 0 mm 2 mps 574 mmHg 52%
    19:00 +13°C° 0 mm 2 mps 574 mmHg 56%
    20:00 +11°C° 0 mm 1 mps 574 mmHg 61%
    21:00 +11°C° 0 mm 1 mps 574 mmHg 64%
    22:00 +10°C° 0 mm 1 mps 574 mmHg 67%
    23:00 +10°C° 0 mm 1 mps 574 mmHg 71%

    20 January, Saturday

    Time Temperature Precipitation Wind Pressure Humidity
    00:00 +9°C° 0 mm 1 mps 573 mmHg 72%
    01:00 +9°C° 0 mm 1 mps 572 mmHg 74%
    02:00 +8°C° 0 mm 1 mps 572 mmHg 76%
    03:00 +8°C° 0 mm 1 mps 572 mmHg 77%
    04:00 +8°C° 0 mm 1 mps 572 mmHg 78%
    05:00 +8°C° 0 mm 1 mps 572 mmHg 78%
    06:00 +9°C° 0 mm 1 mps 573 mmHg 72%
    07:00 +11°C° 0 mm 1 mps 574 mmHg 65%
    08:00 +12°C° 0 mm 1 mps 575 mmHg 58%
    09:00 +14°C° 0 mm 1 mps 576 mmHg 50%
    10:00 +16°C° 0 mm 1 mps 576 mmHg 42%
    11:00 +18°C° 0 mm 2 mps 577 mmHg 33%
    12:00 +18°C° 0 mm 2 mps 576 mmHg 31%
    13:00 +19°C° 0 mm 3 mps 576 mmHg 30%
    14:00 +19°C° 0 mm 4 mps 575 mmHg 28%
    15:00 +18°C° 0 mm 3 mps 575 mmHg 32%
    16:00 +17°C° 0 mm 3 mps 574 mmHg 35%
    17:00 +16°C° 0 mm 3 mps 574 mmHg 39%
    18:00 +15°C° 0 mm 2 mps 574 mmHg 43%
    19:00 +13°C° 0 mm 2 mps 574 mmHg 46%
    20:00 +12°C° 0 mm 1 mps 574 mmHg 50%
    21:00 +12°C° 0 mm 1 mps 573 mmHg 52%
    22:00 +11°C° 0 mm 1 mps 573 mmHg 53%
    23:00 +11°C° 0 mm 1 mps 573 mmHg 55%

    21 January, Sunday

    Time Temperature Precipitation Wind Pressure Humidity
    00:00 +10°C° 0 mm 1 mps 573 mmHg 57%
    01:00 +10°C° 0 mm 1 mps 572 mmHg 60%
    02:00 +10°C° 0 mm 1 mps 572 mmHg 62%
    03:00 +10°C° 0 mm 1 mps 572 mmHg 64%
    04:00 +9°C° 0 mm 1 mps 571 mmHg 65%
    05:00 +9°C° 0 mm 1 mps 571 mmHg 67%
    06:00 +10°C° 0 mm 1 mps 572 mmHg 62%
    07:00 +12°C° 0 mm 1 mps 573 mmHg 57%
    08:00 +13°C° 0 mm 1 mps 574 mmHg 52%
    09:00 +15°C° 0 mm 2 mps 575 mmHg 43%
    10:00 +17°C° 0 mm 2 mps 575 mmHg 35%
    11:00 +19°C° 0 mm 3 mps 576 mmHg 26%
    12:00 +20°C° 0 mm 3 mps 575 mmHg 24%
    13:00 +20°C° 0 mm 3 mps 575 mmHg 23%
    14:00 +21°C° 0 mm 4 mps 574 mmHg 22%
    15:00 +20°C° 0 mm 3 mps 574 mmHg 26%
    16:00 +19°C° 0 mm 3 mps 574 mmHg 30%
    17:00 +17°C° 0 mm 2 mps 573 mmHg 34%
    18:00 +16°C° 0 mm 2 mps 573 mmHg 37%
    19:00 +14°C° 0 mm 1 mps 573 mmHg 40%
    20:00 +13°C° 0 mm 1 mps 573 mmHg 43%
    21:00 +13°C° 0 mm 1 mps 573 mmHg 44%
    22:00 +12°C° 0 mm 1 mps 573 mmHg 45%
    23:00 +12°C° 0 mm 1 mps 573 mmHg 46%

    22 January, Monday

    Time Temperature Precipitation Wind Pressure Humidity
    00:00 +11°C° 0 mm 1 mps 572 mmHg 47%
    01:00 +11°C° 0 mm 1 mps 572 mmHg 48%
    02:00 +11°C° 0 mm 1 mps 572 mmHg 49%
    03:00 +10°C° 0 mm 1 mps 572 mmHg 51%
    04:00 +10°C° 0 mm 1 mps 572 mmHg 53%
    05:00 +10°C° 0 mm 1 mps 572 mmHg 54%
    06:00 +10°C° 0 mm 2 mps 573 mmHg 53%
    07:00 +12°C° 0 mm 2 mps 574 mmHg 52%
    08:00 +14°C° 0 mm 2 mps 575 mmHg 50%
    09:00 +15°C° 0 mm 2 mps 576 mmHg 47%
    10:00 +17°C° 0 mm 3 mps 577 mmHg 43%
    11:00 +18°C° 0 mm 3 mps 577 mmHg 40%
    12:00 +19°C° 0 mm 3 mps 577 mmHg 40%
    13:00 +19°C° 0 mm 4 mps 576 mmHg 41%
    14:00 +19°C° 0 mm 4 mps 576 mmHg 42%
    15:00 +18°C° 0 mm 4 mps 575 mmHg 46%
    16:00 +17°C° 0 mm 4 mps 575 mmHg 51%
    17:00 +15°C° 0 mm 4 mps 575 mmHg 55%
    18:00 +14°C° 0 mm 3 mps 575 mmHg 62%
    19:00 +12°C° 0 mm 3 mps 575 mmHg 70%
    20:00 +12°C° 0 mm 2 mps 575 mmHg 77%
    21:00 +12°C° 0 mm 2 mps 575 mmHg 80%
    22:00 +10°C° 0 mm 2 mps 574 mmHg 83%
    23:00 +9°C° 0 mm 2 mps 574 mmHg 86%
    Show more